Location: Brno
(49.2000°N, 16.6330°E)
Time: 10:07:59
(UTC+02:00)

Daily predictions for brighter satellites

Satellite Brightness Start Highest point End
(mag) Time Altitude Azimuth Time Altitude Azimuth Time Altitude Azimuth
Meteor 2-14 Rocket 4.5 20:06:18 10° S 20:12:25 73° E 20:18:33 10° NNE
Meteor 1-5 Rocket 4.1 20:07:14 10° S 20:12:31 67° E 20:18:01 10° NNE
Lacrosse 5 2.0 20:09:23 10° NW 20:14:28 70° NNE 20:19:31 10° ESE
ERS-1 Rocket 3.7 20:10:08 10° SE 20:14:43 37° ENE 20:19:19 10° N
USA 215 4.0 20:08:43 10° E 20:14:56 48° N 20:21:09 10° WNW
Cosmos 2123 Rocket 4.0 20:09:28 10° N 20:15:41 81° E 20:21:52 10° SSE
CZ-2D R/B 3.3 20:14:15 10° SSE 20:18:07 86° E 20:22:03 10° NNW
USA 186 1.5 20:16:07 10° SSE 20:19:10 68° ENE 20:22:00 10° N
Cosmos 1898 Rocket 3.8 20:15:07 10° NNW 20:20:21 52° ENE 20:25:29 10° SE
SPOT 5 4.1 20:24:02 10° ESE 20:28:03 25° ENE 20:31:55 10° N
Cosmos 1461 4.1 20:24:14 10° NW 20:28:04 38° WSW 20:31:45 10° S
EO 1 Delta rocket 3.9 20:24:08 10° NNE 20:28:46 67° E 20:33:54 10° S
Cosmos 1939 Rocket 3.7 20:26:55 10° SE 20:30:43 36° ENE 20:34:34 10° N
Cosmos 1500 4.1 20:29:21 10° SSE 20:32:36 28° E 20:35:54 10° NNE
Cosmos 1346 Rocket 3.7 20:28:58 10° NNW 20:32:49 52° W 20:36:41 10° S
YAOGAN 11 4.3 20:31:26 10° SSE 20:35:51 58° ENE 20:40:14 10° N
Tiangong 1 2.5 20:34:48 10° WSW 20:37:24 24° S 20:39:32 13° SE
Cosmos 1626 Rocket 3.5 20:33:14 10° N 20:37:41 82° E 20:42:04 10° SSE
H-2A R/B 3.0 20:35:04 10° SE 20:38:34 30° ENE 20:42:13 10° N
Cosmos 1340 3.9 20:36:31 10° NNE 20:39:42 25° ENE 20:42:18 13° ESE
Cosmos 1066 Rocket 4.3 20:38:00 10° N 20:43:37 62° ENE 20:49:19 10° SSE
ATLAS CENTAUR R/B 3.9 20:41:35 10° W 20:45:54 28° NW 20:50:05 10° NNE
Cosmos 1455 Rocket 3.5 20:41:58 10° SSW 20:46:17 66° WNW 20:50:38 10° N
Cosmos 1602 Rocket 3.7 20:42:22 10° NNW 20:46:53 82° W 20:51:18 10° S
Cosmos 1934 Rocket 4.4 20:41:24 10° SSW 20:47:32 68° WNW 20:53:48 10° N
YAOGAN 6 4.1 20:46:23 14° ESE 20:48:29 22° ENE 20:51:24 10° NNE
Cosmos 1153 Rocket 4.5 20:43:46 10° S 20:49:52 67° E 20:55:58 10° NNE
Cosmos 1697 Rocket 3.1 20:44:44 10° S 20:49:54 38° ESE 20:55:06 10° NE
NOSS 7 (E) 4.4 20:47:05 10° SW 20:50:25 87° NW 20:53:57 10° NE
Cosmos 1515 3.7 20:47:50 10° N 20:51:43 86° ENE 20:55:33 10° S
SJ-11-01 4.2 20:47:06 10° SSE 20:51:47 79° ENE 20:56:29 10° NNW
RESURS DK-1 2.4 20:49:12 10° NNW 20:53:21 70° ENE 20:56:43 15° SE
Cosmos 2084 3.8 20:49:44 10° NW 20:53:41 59° SW 20:57:30 12° SSE
Cosmos 2278 3.8 20:50:54 10° SSW 20:56:35 82° WNW 21:02:20 10° NNE
SL-16 R/B 4.1 20:59:04 10° E 20:59:04 10° E 20:59:40 10° E
Terra 3.9 20:57:16 10° E 20:59:18 13° NE 21:01:20 10° NNE
NOSS 7 (H) 4.3 20:56:33 10° SSW 20:59:50 70° SE 21:03:28 10° NE
Cosmos 1802 Rocket 4.4 20:59:01 10° SSE 21:05:04 47° E 21:11:11 10° NNE
Cosmos 1743 3.1 21:06:13 14° SSE 21:09:19 42° E 21:13:03 10° NNE
Cosmos 2369 4.0 21:04:58 10° SW 21:10:37 73° WNW 21:16:22 10° NNE
ARGOS 4.0 21:07:26 18° ESE 21:10:42 35° ENE 21:15:33 10° N
ASTEX 1 4.0 21:06:55 10° NNE 21:11:34 37° E 21:14:35 19° SE
Cosmos 1980 Rocket 2.7 21:07:42 10° S 21:12:50 36° ESE 21:18:01 10° NE
CZ-4 DEB 3.7 21:12:01 10° S 21:15:04 47° W 21:18:08 10° NNW
ALOS 4.4 21:12:39 10° SSW 21:16:34 26° W 21:20:30 10° NW
CZ-4 SHROUD 4.2 21:16:33 27° E 21:17:10 29° ENE 21:19:54 10° N
Cosmos 2058 Rocket 4.1 21:16:00 23° ESE 21:17:31 28° E 21:21:23 10° NNE
Cosmos 2016 Rocket 4.2 21:12:54 10° SSE 21:18:44 48° E 21:24:40 10° NNE
Cosmos 1937 Rocket 3.7 21:18:54 10° NNW 21:24:09 70° WSW 21:28:29 15° S
Envisat 3.1 21:19:34 11° S 21:24:27 77° WSW 21:29:34 10° NNW
Cosmos 1606 Rocket 3.8 21:22:00 20° SSE 21:24:49 48° E 21:29:06 10° NNE
Iridium 4 Rocket 4.3 21:20:12 10° NNW 21:25:14 51° W 21:29:48 10° SSW
MetOp-B 4.2 21:22:11 20° SSE 21:25:53 67° ENE 21:31:13 10° N
Cosmos 2173 Rocket 4.0 21:24:49 10° S 21:31:11 79° E 21:37:31 10° NNE
Cosmos 1975 4.2 21:27:28 10° SSW 21:31:22 42° WNW 21:35:18 10° N
Cosmos 1842 3.5 21:28:31 10° N 21:32:22 51° ENE 21:33:37 35° SE
Cosmos 2263 Rocket 3.2 21:31:04 10° NNW 21:36:06 33° NE 21:38:44 22° E
Lacrosse 5 rocket 3.8 21:35:32 10° WSW 21:36:12 10° WSW 21:36:52 10° SW
Cosmos 2227 Rocket 4.5 21:32:58 10° NW 21:36:58 20° W 21:40:56 10° SW
H-2A R/B 3.0 21:35:17 24° E 21:36:59 30° ENE 21:41:14 10° N
Cosmos 990 Rocket 4.1 21:31:52 10° NNW 21:37:08 73° WSW 21:40:35 22° S
Cosmos 1656 3.9 21:33:26 10° SW 21:39:02 74° WNW 21:44:36 10° NNE
CZ-4B R/B 4.1 21:36:41 10° NE 21:40:54 31° E 21:41:21 30° ESE
Meteor 1-21 4.3 21:36:24 10° NNW 21:42:12 82° W 21:46:29 19° S
Cosmos 2100 Rocket 4.1 21:38:09 10° SSW 21:44:26 79° W 21:50:42 10° N
Cosmos 2322 Rocket 3.1 21:45:38 27° ESE 21:45:38 27° ESE 21:50:11 10° NE
Cosmos 1726 Rocket 3.4 21:46:08 28° S 21:48:22 71° E 21:52:47 10° NNE
Tsikada Rocket 4.1 21:42:00 10° N 21:48:27 68° ENE 21:51:58 28° SSE
Cosmos 2061 Rocket 4.1 21:44:25 10° SSW 21:50:44 78° W 21:57:01 10° N
Cosmos 2098 Rocket 3.9 21:46:25 18° S 21:51:37 64° E 21:57:09 10° NNE
Cosmos 2297 Rocket 4.4 21:48:15 10° NW 21:52:20 21° W 21:56:25 10° SSW
ERS-1 Rocket 4.4 21:48:59 10° SSW 21:53:31 34° W 21:58:06 10° NNW
Nimbus 7 Rocket 4.4 21:49:25 10° NNE 21:55:32 88° ESE 22:01:37 10° SSW
SPOT 1/Viking Rocket 3.5 21:53:32 33° SSE 21:55:57 81° ENE 22:01:12 10° NNW
Cosmos 2360 4.3 21:51:30 15° S 21:56:10 55° ESE 22:01:46 10° NE
Meteor 2-9 Rocket 4.1 21:54:15 29° SSE 21:56:58 61° E 22:02:17 10° NNE
Cosmos 1666 2.5 21:56:34 58° SE 21:57:06 68° E 22:00:53 10° NNE
Lacrosse 5 3.1 21:52:42 10° WNW 21:57:09 31° SW 21:59:17 22° S
Cosmos 1238 4.3 21:54:08 10° N 21:57:16 64° NE 21:57:16 64° NE
USA 215 3.3 21:53:51 28° ESE 21:57:36 80° NNE 22:04:09 10° NW
SL-08 RB Rocket 3.7 22:01:06 45° SE 22:02:27 72° ENE 22:07:05 10° N
SPOT 5 3.6 22:02:45 21° SSW 22:05:52 51° W 22:10:33 10° NNW
Cosmos 1763 Rocket 3.3 22:02:17 12° SSW 22:06:59 85° ESE 22:12:05 10° NNE
Cosmos 1953 Rocket 4.4 22:03:54 10° NNW 22:08:11 48° W 22:10:33 24° SSW
Cosmos 1125 Rocket 3.4 22:03:30 10° NNW 22:08:44 89° WSW 22:10:26 44° SSE
Cosmos 1816 Rocket 4.5 22:04:21 10° N 22:10:47 78° E 22:13:32 37° SSE
Tiangong 1 3.9 22:11:30 10° SW 22:11:30 10° SW 22:11:30 10° SW
H-2A R/B 3.6 22:12:12 17° SSW 22:14:34 30° W 22:18:16 10° NW
Cosmos 1340 4.4 22:12:08 10° NNW 22:15:26 28° W 22:17:12 20° SW
Cosmos 1725 Rocket 3.9 22:14:20 26° S 22:18:07 87° ESE 22:24:25 10° N
IGS 5A 4.0 22:18:47 44° ENE 22:18:47 44° ENE 22:22:42 10° N
Cosmos 332 Rocket 4.4 22:21:22 40° E 22:21:22 40° E 22:25:17 10° NE
Landsat 7 3.7 22:20:04 58° SE 22:20:55 75° ENE 22:25:41 10° N
YAOGAN 6 4.0 22:20:52 28° SW 22:21:54 33° W 22:25:20 10° NNW
Cosmos 2278 Rocket 4.5 22:19:03 10° N 22:22:17 15° NNE 22:25:29 10° ENE
SL-19 R/B 4.1 22:17:58 10° NNE 22:23:34 89° ESE 22:26:07 32° SSW
Meteor 2-17 Rocket 4.3 22:24:17 44° SSE 22:26:08 68° E 22:32:09 10° NNE
Cosmos 2228 2.9 22:27:13 70° SSW 22:27:41 85° WNW 22:32:00 10° N
Cosmos 841 Rocket 3.6 22:25:04 16° SSW 22:29:19 73° WNW 22:34:34 10° NNE
Cosmos 405 Rocket 2.8 22:25:42 10° NNW 22:29:08 72° NNW 22:29:08 72° NNW
GP-B 3.5 22:26:29 10° N 22:30:24 48° ENE 22:30:24 48° ENE
Genesis I 3.9 22:28:24 10° NNW 22:32:06 46° NE 22:32:06 46° NE
Cosmos 1697 Rocket 3.9 22:28:30 10° WSW 22:33:51 42° NW 22:39:13 10° NNE
CZ-4 R/B 3.7 22:29:09 10° NNE 22:33:54 73° ESE 22:34:12 70° SE
Terra 1.7 22:35:52 70° ESE 22:36:15 75° ENE 22:41:02 10° N
CZ-4C R/B 3.4 22:36:46 83° SSE 22:36:56 89° ENE 22:41:22 10° NNW
Okean 3 Rocket 4.2 22:32:58 10° N 22:36:46 42° ENE 22:36:46 42° ENE
SL-16 R/B 2.1 22:40:53 62° SSE 22:41:27 66° ESE 22:47:06 10° NNE
SWAS 4.5 22:43:32 76° N 22:43:32 76° N 22:47:35 10° NNE
Cosmos 2233 Rocket 3.9 22:41:34 46° S 22:43:34 86° E 22:49:52 10° N
Cosmos 540 Rocket 3.4 22:46:25 67° E 22:46:25 67° E 22:51:21 10° NNE
Cosmos 1844 Rocket 3.9 22:43:43 10° NNW 22:48:37 30° NE 22:49:54 27° ENE
DMSP B5D2-2 4.1 22:43:49 10° NNE 22:48:57 62° E 22:48:57 62° E
ARGOS 4.1 22:48:57 30° SW 22:50:52 41° W 22:55:58 10° NNW
Cosmos 372 Rocket 4.1 22:49:53 10° NNW 22:54:56 60° WSW 22:55:25 57° SW
Cosmos 1980 Rocket 3.2 22:51:20 10° SW 22:56:46 45° NW 23:02:15 10° NNE
Cosmos 2360 Rocket 3.3 22:58:52 30° ENE 22:58:52 30° ENE 23:02:21 10° NE
Spot 4 3.7 23:00:22 86° NNW 23:00:22 86° NNW 23:05:05 10° NNW
Cosmos 2034 Rocket 4.3 23:04:55 46° E 23:04:55 46° E 23:10:42 10° NNE
BREEZE-M DEB (TANK) 4.0 22:52:29 10° WNW 23:07:57 51° SW 23:08:48 48° SSW
Meteor 2-5 Rocket 4.0 23:04:12 10° NNW 23:10:05 64° W 23:11:03 56° SW
CARTOSAT-1 4.4 23:13:13 45° W 23:13:13 45° W 23:17:02 10° NNW
Cosmos 1375 Rocket 4.5 23:11:04 39° SW 23:13:44 89° WNW 23:20:24 10° NE
H-2A R/B 2.7 23:15:55 41° WSW 23:16:17 42° W 23:20:59 10° NNW
Cosmos 2219 Rocket 4.5 23:20:55 11° ENE 23:20:55 11° ENE 23:21:16 10° ENE
Cosmos 1707 4.1 23:15:49 10° NNW 23:18:33 38° NW 23:18:33 38° NW
Cosmos 2263 Rocket 2.6 23:14:53 10° NW 23:20:15 50° WSW 23:20:25 50° WSW
Cosmos 1464 Rocket 3.9 23:27:21 75° S 23:27:56 87° E 23:34:20 10° N
Cosmos 2322 Rocket 2.7 23:27:23 39° WSW 23:29:14 57° NW 23:34:48 10° NNE
Meteor 1-24 Rocket 3.8 23:24:22 10° NNW 23:30:26 74° W 23:30:48 71° SW
Cosmos 1513 Rocket 4.3 23:30:49 77° ESE 23:30:56 77° E 23:37:14 10° NNE
Cosmos 2322 4.1 23:33:06 51° ENE 23:33:06 51° ENE 23:37:34 10° NNE
GEOS 3 Rocket 3.7 23:31:16 10° NE 23:36:23 72° NW 23:36:32 71° WNW
Cosmos 1538 Rocket 4.3 23:37:40 61° NE 23:37:40 61° NE 23:42:08 10° NNE
Cosmos 2333 Rocket 4.4 23:39:44 13° ENE 23:39:44 13° ENE 23:40:50 10° ENE
Nadezhda 4 Rocket 3.9 23:34:07 10° N 23:40:29 77° E 23:40:39 76° E
USA 215 3.9 23:41:12 39° SW 23:41:12 39° SW 23:47:04 10° WNW
Lacrosse 4 Rocket 3.7 23:49:21 18° NE 23:49:21 18° NE 23:50:38 10° NE
COSMOS 2428 3.7 23:55:02 36° ENE 23:55:02 36° ENE 23:58:41 10° NE
CZ-4B R/B 4.1 23:57:08 19° NNE 23:57:08 19° NNE 23:58:23 10° N
